User: anonymous   Login
Location: North Smoke Tower Site
(30.5430°N, 82.3390°W)
Time: 22:51:32
(UTC-05:00)
Language:

Cosmos 1980 Rocket - Orbit

View from above orbital plane
View from above orbital plane
View from above satellite
View from above satellite

Ground track
Ground track

The orbit data is extracted from the following two-line orbital elements,

1 19650U 88102B   17326.62813178 -.00000112  00000-0 -32613-4 0  9990
2 19650  71.0009  41.9386 0016395 297.3606  62.5848 14.15760711498410
Epoch (UTC): 22 November 2017 15:04:30
Eccentricity: 0.0016395
inclination: 71.0009°
perigee height: 828 km
apogee height: 851 km
right ascension of ascending node: 41.9386°
argument of perigee: 297.3606°
revolutions per day: 14.15760711
mean anomaly at epoch: 62.5848°
orbit number at epoch: 49841

The dashed part of the orbit path shows where the satellite is in the earth's shadow,  

DLR